| time (UTC) | temp C | wind direction | speed KPH | gust KPH | rain 1hr cm | rain 24hr cm | rain mn cm | humidity % | barometer mb |
| 20260507070511 | 10 | 243 | 0.0 | 6.4 | 0.00 | 0.81 | 0.00 | 89 | 1005.2 |
| 20260507070028 | 10 | 0 | 1.6 | 6.4 | 0.00 | 0.81 | 0.00 | 89 | 1004.7 |
| 20260507065512 | 10 | 0 | 0.0 | 6.4 | 0.00 | 0.81 | 0.00 | 88 | 1004.8 |
| 20260507065012 | 10 | 296 | 1.6 | 12.9 | 0.00 | 0.81 | 0.00 | 89 | 1004.9 |
| 20260507064526 | 10 | 217 | 3.2 | 12.9 | 0.00 | 0.81 | 0.00 | 88 | 1004.9 |
| 20260507064011 | 10 | 303 | 3.2 | 9.7 | 0.00 | 0.81 | 0.00 | 89 | 1004.6 |
| 20260507063514 | 10 | 270 | 1.6 | 9.7 | 0.00 | 0.81 | 0.00 | 89 | 1004.8 |
| 20260507063028 | 10 | 194 | 0.0 | 8.0 | 0.00 | 0.81 | 0.00 | 90 | 1005.1 |
| 20260507062511 | 10 | 221 | 1.6 | 4.8 | 0.00 | 0.81 | 0.00 | 90 | 1005.2 |
| 20260507062010 | 10 | 251 | 1.6 | 4.8 | 0.00 | 0.81 | 0.00 | 90 | 1005.1 |
| 20260507061529 | 10 | 0 | 0.0 | 6.4 | 0.00 | 0.81 | 0.00 | 90 | 1005.0 |
| 20260507061009 | 10 | 0 | 0.0 | 8.0 | 0.00 | 0.81 | 0.00 | 90 | 1004.8 |
| 20260507060510 | 10 | 255 | 3.2 | 8.0 | 0.00 | 0.81 | 0.00 | 89 | 1004.7 |
| 20260507060026 | 10 | 109 | 1.6 | 6.4 | 0.00 | 0.81 | 0.00 | 89 | 1004.7 |
| 20260507055512 | 10 | 69 | 0.0 | 6.4 | 0.00 | 0.81 | 0.00 | 90 | 1004.7 |
| 20260507055011 | 10 | 213 | 1.6 | 8.0 | 0.00 | 0.81 | 0.00 | 90 | 1004.5 |
| 20260507054528 | 10 | 257 | 3.2 | 8.0 | 0.00 | 0.81 | 0.00 | 90 | 1004.8 |
| 20260507054011 | 10 | 313 | 3.2 | 8.0 | 0.00 | 0.81 | 0.00 | 90 | 1004.8 |
| 20260507053511 | 11 | 229 | 1.6 | 6.4 | 0.00 | 0.81 | 0.00 | 90 | 1004.6 |
| 20260507053028 | 11 | 228 | 1.6 | 4.8 | 0.00 | 0.81 | 0.00 | 90 | 1004.3 |
| 20260507052511 | 11 | 277 | 1.6 | 9.7 | 0.00 | 0.81 | 0.00 | 90 | 1004.3 |
| 20260507052010 | 11 | 344 | 0.0 | 9.7 | 0.00 | 0.81 | 0.00 | 90 | 1004.6 |
| 20260507051528 | 11 | 0 | 1.6 | 9.7 | 0.00 | 0.81 | 0.00 | 90 | 1004.6 |
| 20260507051010 | 11 | 255 | 1.6 | 8.0 | 0.00 | 0.81 | 0.00 | 91 | 1004.7 |
| 20260507050508 | 11 | 0 | 0.0 | 8.0 | 0.00 | 0.81 | 0.00 | 91 | 1004.5 |
| 20260507050030 | 11 | 0 | 1.6 | 8.0 | 0.00 | 0.81 | 0.00 | 91 | 1004.5 |
| 20260507045509 | 11 | 269 | 1.6 | 9.7 | 0.00 | 0.81 | 0.00 | 91 | 1004.4 |
| 20260507045012 | 11 | 192 | 3.2 | 9.7 | 0.00 | 0.81 | 0.00 | 91 | 1004.3 |
| 20260507044528 | 11 | 121 | 1.6 | 6.4 | 0.00 | 0.81 | 0.00 | 91 | 1004.4 |
| 20260507044011 | 11 | 242 | 0.0 | 6.4 | 0.00 | 0.81 | 0.00 | 91 | 1004.5 |
| 20260507043511 | 11 | 278 | 1.6 | 8.0 | 0.00 | 0.81 | 0.00 | 92 | 1004.4 |
| 20260507043029 | 11 | 229 | 1.6 | 8.0 | 0.00 | 0.81 | 0.00 | 92 | 1004.3 |
| 20260507042512 | 11 | 275 | 1.6 | 11.3 | 0.00 | 0.81 | 0.00 | 92 | 1004.2 |
| 20260507042010 | 12 | 256 | 0.0 | 11.3 | 0.03 | 0.81 | 0.00 | 92 | 1004.2 |
| 20260507041528 | 12 | 360 | 3.2 | 11.3 | 0.03 | 0.81 | 0.00 | 92 | 1004.2 |
| 20260507041010 | 12 | 82 | 3.2 | 9.7 | 0.03 | 0.81 | 0.00 | 93 | 1004.0 |
| 20260507040510 | 12 | 217 | 0.0 | 3.2 | 0.03 | 0.81 | 0.00 | 94 | 1004.0 |
| 20260507040026 | 12 | 0 | 0.0 | 9.7 | 0.03 | 0.81 | 0.00 | 94 | 1004.1 |
| 20260507035512 | 12 | 65 | 1.6 | 11.3 | 0.03 | 0.81 | 0.81 | 94 | 1003.9 |
| 20260507035014 | 12 | 0 | 3.2 | 11.3 | 0.03 | 0.81 | 0.81 | 95 | 1004.1 |
| 20260507034534 | 12 | 244 | 1.6 | 16.1 | 0.03 | 0.81 | 0.81 | 96 | 1004.0 |
| 20260507034009 | 12 | 236 | 3.2 | 16.1 | 0.03 | 0.81 | 0.81 | 96 | 1004.4 |
| 20260507033511 | 12 | 234 | 3.2 | 16.1 | 0.03 | 0.81 | 0.81 | 97 | 1004.2 |
| 20260507033026 | 12 | 195 | 3.2 | 12.9 | 0.03 | 0.81 | 0.81 | 96 | 1004.2 |
| 20260507032516 | 11 | 214 | 0.0 | 3.2 | 0.03 | 0.81 | 0.81 | 96 | 1004.1 |
| 20260507032015 | 11 | 0 | 0.0 | 3.2 | 0.00 | 0.79 | 0.79 | 96 | 1003.9 |
| 20260507031528 | 11 | 0 | 0.0 | 3.2 | 0.00 | 0.79 | 0.79 | 95 | 1003.8 |
| 20260507031009 | 11 | 205 | 0.0 | 3.2 | 0.00 | 0.79 | 0.79 | 96 | 1003.7 |
| 20260507030517 | 11 | 205 | 0.0 | 3.2 | 0.00 | 0.79 | 0.79 | 95 | 1003.7 |
| 20260507030031 | 11 | 0 | 0.0 | 1.6 | 0.00 | 0.79 | 0.79 | 95 | 1003.8 |
| 20260507025511 | 11 | 0 | 0.0 | 1.6 | 0.00 | 0.79 | 0.79 | 95 | 1003.6 |
| 20260507025011 | 11 | 205 | 0.0 | 1.6 | 0.00 | 0.79 | 0.79 | 95 | 1003.7 |
| 20260507024527 | 11 | 0 | 0.0 | 1.6 | 0.00 | 0.79 | 0.79 | 95 | 1003.9 |
| 20260507024012 | 11 | 0 | 0.0 | 1.6 | 0.00 | 0.79 | 0.79 | 95 | 1003.8 |
| 20260507023511 | 11 | 0 | 0.0 | 1.6 | 0.00 | 0.79 | 0.79 | 95 | 1003.8 |
| 20260507023028 | 11 | 0 | 0.0 | 1.6 | 0.00 | 0.79 | 0.79 | 95 | 1003.9 |
| 20260507022509 | 11 | 0 | 0.0 | 1.6 | 0.00 | 0.79 | 0.79 | 95 | 1003.9 |
| 20260507022012 | 11 | 0 | 0.0 | 1.6 | 0.00 | 0.79 | 0.79 | 95 | 1003.9 |
| 20260507021528 | 11 | 0 | 0.0 | 1.6 | 0.00 | 0.79 | 0.79 | 95 | 1004.0 |
| 20260507021011 | 11 | 0 | 0.0 | 4.8 | 0.00 | 0.79 | 0.79 | 96 | 1004.0 |
| 20260507020508 | 11 | 0 | 0.0 | 4.8 | 0.00 | 0.79 | 0.79 | 96 | 1004.2 |
| 20260507020044 | 11 | 205 | 0.0 | 6.4 | 0.00 | 0.79 | 0.79 | 96 | 1004.2 |
| 20260507015509 | 11 | 0 | 0.0 | 6.4 | 0.00 | 0.79 | 0.79 | 96 | 1004.3 |
| 20260507015012 | 11 | 196 | 0.0 | 6.4 | 0.00 | 0.79 | 0.79 | 95 | 1004.4 |
| 20260507014533 | 11 | 0 | 0.0 | 3.2 | 0.00 | 0.79 | 0.79 | 95 | 1004.2 |
| 20260507014010 | 11 | 171 | 0.0 | 3.2 | 0.00 | 0.79 | 0.79 | 95 | 1004.4 |
| 20260507013509 | 11 | 0 | 0.0 | 1.6 | 0.00 | 0.79 | 0.79 | 95 | 1004.4 |
| 20260507013028 | 11 | 0 | 0.0 | 1.6 | 0.03 | 0.79 | 0.79 | 95 | 1004.5 |
| 20260507012008 | 11 | 0 | 0.0 | 3.2 | 0.03 | 0.79 | 0.79 | 95 | 1004.6 |
| 20260507011539 | 11 | 0 | 0.0 | 8.0 | 0.03 | 0.79 | 0.79 | 95 | 1004.5 |
| 20260507011009 | 11 | 0 | 0.0 | 8.0 | 0.03 | 0.79 | 0.79 | 95 | 1004.3 |
| 20260507010509 | 11 | 183 | 0.0 | 4.8 | 0.03 | 0.79 | 0.79 | 95 | 1004.5 |
| 20260507010029 | 11 | 211 | 1.6 | 6.4 | 0.03 | 0.79 | 0.79 | 95 | 1004.5 |
| 20260507005509 | 11 | 200 | 1.6 | 8.0 | 0.03 | 0.79 | 0.79 | 95 | 1004.5 |
| 20260507005010 | 11 | 0 | 1.6 | 11.3 | 0.03 | 0.79 | 0.79 | 95 | 1004.5 |
| 20260507004527 | 11 | 220 | 3.2 | 11.3 | 0.03 | 0.79 | 0.79 | 95 | 1004.5 |
| 20260507004012 | 11 | 216 | 1.6 | 9.7 | 0.03 | 0.79 | 0.79 | 95 | 1004.5 |
| 20260507003511 | 11 | 191 | 1.6 | 9.7 | 0.03 | 0.79 | 0.79 | 94 | 1004.6 |
| 20260507003025 | 11 | 244 | 0.0 | 8.0 | 0.00 | 0.76 | 0.76 | 95 | 1004.5 |
| 20260507002508 | 11 | 0 | 1.6 | 6.4 | 0.00 | 0.76 | 0.76 | 95 | 1004.5 |
| 20260507001031 | 12 | 169 | 3.2 | 8.0 | 0.00 | 0.76 | 0.76 | 95 | 1004.5 |
| 20260507000508 | 11 | 209 | 1.6 | 11.3 | 0.00 | 0.76 | 0.76 | 95 | 1004.5 |
| 20260507000026 | 12 | 0 | 1.6 | 11.3 | 0.00 | 0.76 | 0.76 | 95 | 1004.3 |
| 20260506235509 | 11 | 199 | 1.6 | 9.7 | 0.00 | 0.76 | 0.76 | 95 | 1004.5 |
| 20260506235014 | 11 | 212 | 3.2 | 11.3 | 0.00 | 0.76 | 0.76 | 95 | 1004.5 |
| 20260506234527 | 12 | 167 | 3.2 | 11.3 | 0.00 | 0.76 | 0.76 | 95 | 1004.7 |
| 20260506234010 | 11 | 188 | 4.8 | 14.5 | 0.00 | 0.76 | 0.76 | 95 | 1004.7 |
| 20260506233509 | 11 | 188 | 3.2 | 14.5 | 0.00 | 0.76 | 0.76 | 95 | 1004.7 |
| 20260506233027 | 11 | 175 | 4.8 | 11.3 | 0.00 | 0.76 | 0.76 | 95 | 1004.7 |
| 20260506232510 | 11 | 206 | 4.8 | 11.3 | 0.03 | 0.76 | 0.76 | 95 | 1004.6 |
| 20260506231528 | 11 | 213 | 3.2 | 12.9 | 0.03 | 0.76 | 0.76 | 95 | 1004.6 |
| 20260506231009 | 11 | 220 | 4.8 | 14.5 | 0.03 | 0.76 | 0.76 | 94 | 1004.6 |
| 20260506230511 | 11 | 219 | 3.2 | 14.5 | 0.05 | 0.76 | 0.76 | 94 | 1004.7 |
| 20260506225509 | 11 | 0 | 3.2 | 12.9 | 0.05 | 0.76 | 0.76 | 94 | 1004.7 |
| 20260506225009 | 11 | 202 | 3.2 | 12.9 | 0.08 | 0.76 | 0.76 | 94 | 1004.8 |
| 20260506224530 | 11 | 162 | 1.6 | 11.3 | 0.08 | 0.76 | 0.76 | 94 | 1004.8 |
| 20260506224007 | 11 | 173 | 3.2 | 11.3 | 0.08 | 0.76 | 0.76 | 94 | 1004.9 |
| 20260506223508 | 11 | 198 | 3.2 | 9.7 | 0.10 | 0.76 | 0.76 | 94 | 1004.8 |
| 20260506223032 | 11 | 164 | 1.6 | 9.7 | 0.15 | 0.76 | 0.76 | 94 | 1004.9 |
| 20260506222513 | 11 | 202 | 3.2 | 12.9 | 0.15 | 0.74 | 0.74 | 94 | 1004.9 |
| 20260506222009 | 11 | 220 | 3.2 | 12.9 | 0.15 | 0.74 | 0.74 | 94 | 1004.9 |
| 20260506221528 | 11 | 183 | 3.2 | 9.7 | 0.18 | 0.74 | 0.74 | 93 | 1004.9 |
| 20260506221011 | 12 | 215 | 3.2 | 12.9 | 0.20 | 0.74 | 0.74 | 93 | 1004.9 |
| 20260506220509 | 12 | 201 | 3.2 | 17.7 | 0.23 | 0.71 | 0.71 | 94 | 1005.0 |
| 20260506220033 | 12 | 210 | 6.4 | 17.7 | 0.25 | 0.71 | 0.71 | 93 | 1005.1 |
| 20260506215509 | 12 | 217 | 4.8 | 14.5 | 0.28 | 0.71 | 0.71 | 93 | 1005.0 |
| 20260506215009 | 12 | 236 | 1.6 | 14.5 | 0.28 | 0.69 | 0.69 | 94 | 1005.2 |
| 20260506214528 | 12 | 198 | 4.8 | 14.5 | 0.30 | 0.69 | 0.69 | 94 | 1005.1 |
| 20260506214010 | 12 | 215 | 4.8 | 14.5 | 0.36 | 0.69 | 0.69 | 94 | 1005.1 |
| 20260506213515 | 12 | 182 | 3.2 | 14.5 | 0.36 | 0.66 | 0.66 | 94 | 1005.3 |
| 20260506213027 | 12 | 199 | 3.2 | 11.3 | 0.30 | 0.61 | 0.61 | 94 | 1005.4 |
| 20260506212509 | 12 | 223 | 3.2 | 11.3 | 0.30 | 0.58 | 0.58 | 93 | 1005.4 |
| 20260506212014 | 12 | 248 | 4.8 | 11.3 | 0.30 | 0.56 | 0.56 | 93 | 1005.3 |
| 20260506211527 | 12 | 188 | 3.2 | 11.3 | 0.30 | 0.56 | 0.56 | 93 | 1005.4 |
| 20260506211009 | 12 | 225 | 3.2 | 11.3 | 0.25 | 0.51 | 0.51 | 93 | 1005.4 |
| 20260506210515 | 12 | 0 | 3.2 | 11.3 | 0.23 | 0.48 | 0.48 | 93 | 1005.5 |
| 20260506210046 | 12 | 249 | 3.2 | 12.9 | 0.23 | 0.46 | 0.46 | 93 | 1005.4 |
| 20260506205509 | 12 | 175 | 3.2 | 12.9 | 0.20 | 0.43 | 0.43 | 92 | 1005.5 |
| 20260506205014 | 12 | 215 | 3.2 | 11.3 | 0.18 | 0.41 | 0.41 | 92 | 1005.6 |
| 20260506204527 | 13 | 208 | 3.2 | 12.9 | 0.13 | 0.36 | 0.36 | 92 | 1005.6 |
| 20260506204008 | 13 | 238 | 4.8 | 12.9 | 0.13 | 0.33 | 0.33 | 92 | 1005.5 |
| 20260506203514 | 13 | 227 | 3.2 | 12.9 | 0.10 | 0.30 | 0.30 | 92 | 1005.5 |
| 20260506203026 | 13 | 223 | 4.8 | 11.3 | 0.10 | 0.30 | 0.30 | 92 | 1005.5 |
| 20260506202509 | 13 | 198 | 3.2 | 11.3 | 0.10 | 0.28 | 0.28 | 92 | 1005.6 |
| 20260506202012 | 13 | 194 | 3.2 | 9.7 | 0.08 | 0.25 | 0.25 | 92 | 1005.4 |
| 20260506201526 | 13 | 213 | 1.6 | 9.7 | 0.13 | 0.25 | 0.25 | 92 | 1005.5 |
| 20260506201009 | 13 | 221 | 1.6 | 9.7 | 0.18 | 0.25 | 0.25 | 92 | 1005.5 |
| 20260506200512 | 13 | 209 | 1.6 | 4.8 | 0.20 | 0.23 | 0.23 | 93 | 1005.4 |
| 20260506200030 | 13 | 205 | 0.0 | 3.2 | 0.20 | 0.23 | 0.23 | 93 | 1005.4 |
| 20260506195511 | 13 | 0 | 0.0 | 6.4 | 0.20 | 0.23 | 0.23 | 92 | 1005.4 |
| 20260506195013 | 13 | 253 | 0.0 | 8.0 | 0.20 | 0.23 | 0.23 | 92 | 1005.4 |
| 20260506194528 | 13 | 84 | 0.0 | 8.0 | 0.23 | 0.23 | 0.23 | 91 | 1005.7 |
| 20260506194010 | 13 | 200 | 1.6 | 8.0 | 0.20 | 0.20 | 0.20 | 91 | 1006.5 |
| 20260506193511 | 13 | 0 | 0.0 | 3.2 | 0.20 | 0.20 | 0.20 | 91 | 1005.8 |
| 20260506193035 | 13 | 251 | 0.0 | 3.2 | 0.20 | 0.20 | 0.20 | 90 | 1005.9 |
| 20260506192510 | 13 | 251 | 0.0 | 3.2 | 0.18 | 0.18 | 0.18 | 90 | 1006.3 |
| 20260506192011 | 13 | 0 | 0.0 | 3.2 | 0.15 | 0.15 | 0.15 | 90 | 1006.2 |
| 20260506191529 | 13 | 0 | 0.0 | 4.8 | 0.13 | 0.13 | 0.13 | 89 | 1006.3 |
| 20260506191010 | 13 | 0 | 1.6 | 4.8 | 0.08 | 0.08 | 0.08 | 88 | 1006.8 |
| 20260506190511 | 14 | 0 | 0.0 | 4.8 | 0.03 | 0.03 | 0.03 | 88 | 1006.3 |
| 20260506190030 | 14 | 0 | 0.0 | 3.2 | 0.03 | 0.03 | 0.03 | 87 | 1006.0 |
| 20260506185512 | 14 | 0 | 0.0 | 6.4 | 0.03 | 0.03 | 0.03 | 86 | 1005.9 |
| 20260506185007 | 14 | 0 | 0.0 | 8.0 | 0.03 | 0.03 | 0.03 | 85 | 1006.1 |
| 20260506184536 | 14 | 216 | 1.6 | 11.3 | 0.00 | 0.00 | 0.00 | 85 | 1006.1 |
| 20260506184011 | 14 | 207 | 0.0 | 11.3 | 0.00 | 0.00 | 0.00 | 83 | 1006.4 |
| 20260506183517 | 14 | 209 | 1.6 | 16.1 | 0.00 | 0.00 | 0.00 | 82 | 1006.1 |
| 20260506183027 | 14 | 0 | 3.2 | 16.1 | 0.00 | 0.00 | 0.00 | 80 | 1005.9 |
| 20260506182511 | 14 | 193 | 4.8 | 16.1 | 0.00 | 0.00 | 0.00 | 79 | 1005.7 |
| 20260506182012 | 14 | 227 | 3.2 | 14.5 | 0.00 | 0.00 | 0.00 | 79 | 1005.8 |
| 20260506181536 | 14 | 196 | 4.8 | 14.5 | 0.00 | 0.00 | 0.00 | 78 | 1005.7 |
| 20260506181008 | 14 | 191 | 1.6 | 9.7 | 0.00 | 0.00 | 0.00 | 78 | 1005.9 |
| 20260506180514 | 14 | 165 | 4.8 | 9.7 | 0.00 | 0.00 | 0.00 | 77 | 1006.1 |
| 20260506180027 | 15 | 232 | 3.2 | 9.7 | 0.00 | 0.00 | 0.00 | 77 | 1006.0 |
| 20260506175508 | 15 | 124 | 3.2 | 14.5 | 0.00 | 0.00 | 0.00 | 77 | 1006.0 |
| 20260506175007 | 15 | 159 | 3.2 | 14.5 | 0.00 | 0.00 | 0.00 | 76 | 1006.2 |
| 20260506174530 | 15 | 190 | 3.2 | 16.1 | 0.00 | 0.00 | 0.00 | 76 | 1006.2 |
| 20260506174011 | 15 | 217 | 3.2 | 16.1 | 0.00 | 0.00 | 0.00 | 75 | 1006.3 |
| 20260506173509 | 15 | 121 | 4.8 | 14.5 | 0.00 | 0.00 | 0.00 | 75 | 1006.2 |
| 20260506173028 | 15 | 196 | 3.2 | 16.1 | 0.00 | 0.00 | 0.00 | 75 | 1006.2 |
| 20260506172507 | 15 | 178 | 6.4 | 17.7 | 0.00 | 0.00 | 0.00 | 75 | 1006.2 |
| 20260506172013 | 15 | 178 | 3.2 | 17.7 | 0.00 | 0.00 | 0.00 | 75 | 1006.3 |
| 20260506171533 | 15 | 182 | 4.8 | 12.9 | 0.00 | 0.00 | 0.00 | 75 | 1006.4 |
| 20260506171013 | 15 | 190 | 3.2 | 12.9 | 0.00 | 0.00 | 0.00 | 74 | 1006.5 |
| 20260506170512 | 16 | 207 | 4.8 | 12.9 | 0.00 | 0.00 | 0.00 | 74 | 1006.6 |
| 20260506170031 | 16 | 198 | 3.2 | 12.9 | 0.00 | 0.00 | 0.00 | 73 | 1006.7 |
| 20260506165511 | 16 | 237 | 4.8 | 12.9 | 0.00 | 0.00 | 0.00 | 73 | 1006.9 |
| 20260506165011 | 16 | 194 | 3.2 | 11.3 | 0.00 | 0.00 | 0.00 | 73 | 1006.9 |
| 20260506164544 | 16 | 207 | 3.2 | 11.3 | 0.00 | 0.00 | 0.00 | 73 | 1006.9 |
| 20260506164014 | 17 | 161 | 3.2 | 11.3 | 0.00 | 0.00 | 0.00 | 74 | 1007.0 |
| 20260506163511 | 17 | 154 | 4.8 | 11.3 | 0.00 | 0.00 | 0.00 | 74 | 1007.1 |
| 20260506163028 | 17 | 209 | 1.6 | 11.3 | 0.00 | 0.00 | 0.00 | 75 | 1007.2 |
| 20260506162511 | 17 | 222 | 3.2 | 11.3 | 0.00 | 0.00 | 0.00 | 75 | 1007.3 |
| 20260506162015 | 17 | 226 | 3.2 | 11.3 | 0.00 | 0.00 | 0.00 | 74 | 1007.3 |
| 20260506161528 | 17 | 217 | 3.2 | 9.7 | 0.00 | 0.00 | 0.00 | 75 | 1007.5 |
| 20260506161014 | 17 | 202 | 3.2 | 8.0 | 0.00 | 0.00 | 0.00 | 74 | 1007.7 |
| 20260506160511 | 17 | 311 | 1.6 | 8.0 | 0.00 | 0.00 | 0.00 | 75 | 1007.8 |
| 20260506160030 | 17 | 210 | 3.2 | 8.0 | 0.00 | 0.00 | 0.00 | 74 | 1007.8 |
| 20260506155510 | 17 | 229 | 1.6 | 11.3 | 0.00 | 0.00 | 0.00 | 76 | 1007.8 |
| 20260506155012 | 16 | 221 | 1.6 | 11.3 | 0.00 | 0.00 | 0.00 | 76 | 1008.1 |
| 20260506154528 | 16 | 214 | 1.6 | 16.1 | 0.00 | 0.00 | 0.00 | 77 | 1008.1 |
| 20260506154014 | 16 | 182 | 4.8 | 16.1 | 0.00 | 0.00 | 0.00 | 77 | 1008.1 |
| 20260506153028 | 16 | 195 | 3.2 | 16.1 | 0.00 | 0.00 | 0.00 | 77 | 1008.0 |
| 20260506152510 | 16 | 165 | 3.2 | 16.1 | 0.00 | 0.00 | 0.00 | 78 | 1007.8 |
| 20260506152012 | 16 | 194 | 4.8 | 12.9 | 0.00 | 0.00 | 0.00 | 78 | 1008.2 |
| 20260506151530 | 16 | 212 | 3.2 | 12.9 | 0.00 | 0.00 | 0.00 | 77 | 1008.4 |
| 20260506151011 | 16 | 252 | 3.2 | 8.0 | 0.00 | 0.00 | 0.00 | 77 | 1008.3 |
| 20260506150511 | 16 | 78 | 1.6 | 8.0 | 0.00 | 0.00 | 0.00 | 77 | 1008.2 |
| 20260506150027 | 16 | 278 | 1.6 | 11.3 | 0.00 | 0.00 | 0.00 | 76 | 1008.0 |
| 20260506145509 | 16 | 213 | 3.2 | 11.3 | 0.00 | 0.00 | 0.00 | 77 | 1007.9 |
| 20260506145008 | 16 | 234 | 3.2 | 8.0 | 0.00 | 0.00 | 0.00 | 77 | 1008.1 |
| 20260506144530 | 16 | 208 | 3.2 | 8.0 | 0.00 | 0.00 | 0.00 | 78 | 1007.9 |
| 20260506144013 | 16 | 171 | 3.2 | 8.0 | 0.00 | 0.00 | 0.00 | 78 | 1008.0 |
| 20260506143517 | 16 | 208 | 1.6 | 8.0 | 0.00 | 0.00 | 0.00 | 78 | 1008.0 |
| 20260506143036 | 15 | 218 | 1.6 | 8.0 | 0.00 | 0.00 | 0.00 | 78 | 1007.7 |
| 20260506141530 | 15 | 204 | 3.2 | 11.3 | 0.00 | 0.00 | 0.00 | 81 | 1007.9 |
| 20260506141011 | 14 | 226 | 4.8 | 11.3 | 0.00 | 0.00 | 0.00 | 81 | 1007.9 |
| 20260506140510 | 14 | 228 | 1.6 | 9.7 | 0.00 | 0.00 | 0.00 | 82 | 1008.1 |
| 20260506140028 | 14 | 217 | 3.2 | 6.4 | 0.00 | 0.00 | 0.00 | 82 | 1008.3 |
| 20260506135508 | 14 | 180 | 1.6 | 8.0 | 0.00 | 0.00 | 0.00 | 82 | 1008.3 |
| 20260506135008 | 13 | 284 | 1.6 | 9.7 | 0.00 | 0.00 | 0.00 | 82 | 1008.5 |
| 20260506134526 | 14 | 153 | 4.8 | 9.7 | 0.00 | 0.00 | 0.00 | 82 | 1008.5 |
| 20260506134014 | 14 | 201 | 3.2 | 8.0 | 0.00 | 0.00 | 0.00 | 81 | 1008.5 |
| 20260506133509 | 14 | 205 | 1.6 | 8.0 | 0.00 | 0.00 | 0.00 | 82 | 1008.4 |
| 20260506133029 | 13 | 219 | 3.2 | 8.0 | 0.00 | 0.00 | 0.00 | 82 | 1008.5 |
| 20260506132511 | 13 | 199 | 1.6 | 8.0 | 0.00 | 0.00 | 0.00 | 83 | 1008.5 |
| 20260506132010 | 13 | 0 | 3.2 | 8.0 | 0.00 | 0.00 | 0.00 | 82 | 1008.5 |
| 20260506131528 | 13 | 219 | 1.6 | 6.4 | 0.00 | 0.00 | 0.00 | 82 | 1008.5 |
| 20260506131010 | 13 | 213 | 1.6 | 6.4 | 0.00 | 0.00 | 0.00 | 82 | 1008.5 |
| 20260506130509 | 13 | 216 | 1.6 | 6.4 | 0.00 | 0.00 | 0.00 | 82 | 1008.4 |
| 20260506130026 | 13 | 273 | 1.6 | 6.4 | 0.00 | 0.00 | 0.00 | 82 | 1008.4 |
| 20260506125512 | 13 | 217 | 0.0 | 9.7 | 0.00 | 0.00 | 0.00 | 82 | 1008.3 |
| 20260506125009 | 13 | 250 | 3.2 | 9.7 | 0.00 | 0.00 | 0.00 | 82 | 1008.2 |
| 20260506124527 | 13 | 211 | 1.6 | 8.0 | 0.00 | 0.00 | 0.00 | 82 | 1008.5 |
| 20260506124009 | 13 | 105 | 3.2 | 9.7 | 0.00 | 0.00 | 0.00 | 82 | 1008.5 |
| 20260506123511 | 13 | 0 | 0.0 | 9.7 | 0.00 | 0.00 | 0.00 | 83 | 1008.5 |
| 20260506123026 | 13 | 182 | 1.6 | 9.7 | 0.00 | 0.00 | 0.00 | 83 | 1008.5 |
| 20260506122512 | 13 | 189 | 3.2 | 9.7 | 0.00 | 0.00 | 0.00 | 83 | 1008.6 |
| 20260506122012 | 13 | 231 | 1.6 | 8.0 | 0.00 | 0.00 | 0.00 | 84 | 1008.5 |
| 20260506121528 | 13 | 215 | 3.2 | 8.0 | 0.00 | 0.00 | 0.00 | 84 | 1008.6 |
| 20260506121011 | 13 | 0 | 0.0 | 6.4 | 0.00 | 0.00 | 0.00 | 84 | 1008.8 |
| 20260506120511 | 13 | 0 | 1.6 | 6.4 | 0.00 | 0.00 | 0.00 | 84 | 1008.7 |
| 20260506120047 | 12 | 210 | 1.6 | 6.4 | 0.00 | 0.00 | 0.00 | 84 | 1008.8 |
| 20260506115508 | 12 | 209 | 0.0 | 4.8 | 0.00 | 0.00 | 0.00 | 85 | 1008.8 |
| 20260506115013 | 12 | 196 | 0.0 | 4.8 | 0.00 | 0.00 | 0.00 | 86 | 1008.7 |
| 20260506114526 | 12 | 0 | 1.6 | 4.8 | 0.00 | 0.00 | 0.00 | 86 | 1009.0 |
| 20260506114012 | 12 | 209 | 0.0 | 4.8 | 0.00 | 0.00 | 0.00 | 86 | 1009.1 |
| 20260506113511 | 12 | 0 | 0.0 | 3.2 | 0.00 | 0.00 | 0.00 | 86 | 1009.1 |
| 20260506113028 | 11 | 200 | 0.0 | 4.8 | 0.00 | 0.00 | 0.00 | 86 | 1008.9 |
| 20260506112510 | 11 | 208 | 1.6 | 4.8 | 0.00 | 0.00 | 0.00 | 86 | 1008.9 |
| 20260506112010 | 11 | 200 | 0.0 | 4.8 | 0.00 | 0.00 | 0.00 | 87 | 1009.1 |
| 20260506111527 | 11 | 0 | 0.0 | 4.8 | 0.00 | 0.00 | 0.00 | 87 | 1009.0 |
| 20260506111010 | 11 | 0 | 0.0 | 4.8 | 0.00 | 0.00 | 0.00 | 87 | 1009.0 |
| 20260506110509 | 11 | 0 | 0.0 | 6.4 | 0.00 | 0.00 | 0.00 | 87 | 1008.9 |
| 20260506110030 | 11 | 202 | 1.6 | 6.4 | 0.00 | 0.00 | 0.00 | 88 | 1009.0 |
| 20260506105507 | 11 | 211 | 0.0 | 3.2 | 0.00 | 0.00 | 0.00 | 89 | 1008.9 |
| 20260506105010 | 11 | 211 | 0.0 | 3.2 | 0.00 | 0.00 | 0.00 | 89 | 1008.9 |
| 20260506104538 | 10 | 0 | 0.0 | 3.2 | 0.00 | 0.00 | 0.00 | 89 | 1009.0 |
| 20260506104016 | 10 | 0 | 0.0 | 3.2 | 0.00 | 0.00 | 0.00 | 89 | 1009.2 |
| 20260506103510 | 10 | 0 | 0.0 | 3.2 | 0.00 | 0.00 | 0.00 | 89 | 1008.9 |
| 20260506103039 | 10 | 0 | 0.0 | 3.2 | 0.00 | 0.00 | 0.00 | 89 | 1009.0 |
| 20260506102516 | 10 | 0 | 0.0 | 3.2 | 0.00 | 0.00 | 0.00 | 89 | 1009.1 |
| 20260506102010 | 10 | 0 | 0.0 | 3.2 | 0.00 | 0.00 | 0.00 | 89 | 1009.1 |
| 20260506101528 | 10 | 0 | 0.0 | 3.2 | 0.00 | 0.00 | 0.00 | 89 | 1009.1 |
| 20260506101009 | 10 | 0 | 0.0 | 3.2 | 0.00 | 0.00 | 0.00 | 90 | 1008.8 |
| 20260506100516 | 10 | 211 | 0.0 | 3.2 | 0.00 | 0.00 | 0.00 | 90 | 1008.7 |
| 20260506100027 | 10 | 211 | 0.0 | 3.2 | 0.00 | 0.00 | 0.00 | 90 | 1008.9 |
| 20260506095510 | 9 | 0 | 0.0 | 0.0 | 0.00 | 0.00 | 0.00 | 90 | 1009.0 |
| 20260506095011 | 9 | 0 | 0.0 | 0.0 | 0.00 | 0.00 | 0.00 | 90 | 1009.0 |
| 20260506094528 | 9 | 0 | 0.0 | 0.0 | 0.00 | 0.00 | 0.00 | 90 | 1009.0 |
| 20260506094010 | 9 | 0 | 0.0 | 1.6 | 0.00 | 0.00 | 0.00 | 90 | 1008.9 |
| 20260506093511 | 9 | 0 | 0.0 | 1.6 | 0.00 | 0.00 | 0.00 | 89 | 1008.9 |
| 20260506093028 | 9 | 0 | 0.0 | 1.6 | 0.00 | 0.00 | 0.00 | 89 | 1008.8 |
| 20260506092509 | 9 | 0 | 0.0 | 1.6 | 0.00 | 0.00 | 0.00 | 89 | 1008.9 |
| 20260506092011 | 9 | 0 | 0.0 | 1.6 | 0.00 | 0.00 | 0.00 | 89 | 1008.7 |
| 20260506091528 | 10 | 0 | 0.0 | 1.6 | 0.00 | 0.00 | 0.00 | 89 | 1008.7 |
| 20260506091007 | 10 | 0 | 0.0 | 0.0 | 0.00 | 0.00 | 0.00 | 88 | 1008.7 |
| 20260506090510 | 10 | 0 | 0.0 | 1.6 | 0.00 | 0.00 | 0.00 | 88 | 1008.8 |
| 20260506090027 | 10 | 0 | 0.0 | 1.6 | 0.00 | 0.00 | 0.00 | 88 | 1008.9 |
| 20260506085510 | 10 | 0 | 0.0 | 1.6 | 0.00 | 0.00 | 0.00 | 88 | 1008.7 |
| 20260506085008 | 10 | 0 | 0.0 | 1.6 | 0.00 | 0.00 | 0.00 | 87 | 1008.7 |
| 20260506084558 | 10 | 0 | 0.0 | 1.6 | 0.00 | 0.00 | 0.00 | 87 | 1008.7 |
| 20260506084012 | 10 | 0 | 0.0 | 1.6 | 0.00 | 0.00 | 0.00 | 87 | 1008.7 |
| 20260506083511 | 10 | 211 | 0.0 | 3.2 | 0.00 | 0.00 | 0.00 | 87 | 1008.7 |
| 20260506083024 | 10 | 0 | 0.0 | 3.2 | 0.00 | 0.00 | 0.00 | 87 | 1008.6 |
| 20260506082508 | 10 | 0 | 0.0 | 1.6 | 0.00 | 0.00 | 0.00 | 86 | 1008.7 |
| 20260506082013 | 10 | 0 | 0.0 | 1.6 | 0.00 | 0.00 | 0.00 | 86 | 1008.6 |
| 20260506081537 | 10 | 0 | 0.0 | 1.6 | 0.00 | 0.00 | 0.00 | 86 | 1008.6 |
| 20260506081011 | 10 | 0 | 0.0 | 1.6 | 0.00 | 0.00 | 0.00 | 86 | 1008.5 |
| 20260506080508 | 10 | 0 | 0.0 | 1.6 | 0.00 | 0.00 | 0.00 | 85 | 1008.7 |
| 20260506073512 | 10 | 0 | 0.0 | 3.2 | 0.00 | 0.00 | 0.00 | 84 | 1008.3 |
| 20260506073026 | 11 | 0 | 0.0 | 3.2 | 0.00 | 0.00 | 0.00 | 84 | 1008.4 |
| 20260506072512 | 10 | 0 | 0.0 | 3.2 | 0.00 | 0.00 | 0.00 | 84 | 1008.3 |
| 20260506072013 | 10 | 0 | 0.0 | 6.4 | 0.00 | 0.00 | 0.00 | 84 | 1008.1 |
| 20260506071528 | 11 | 0 | 0.0 | 6.4 | 0.00 | 0.00 | 0.00 | 84 | 1008.1 |
| 20260506071009 | 11 | 0 | 0.0 | 3.2 | 0.00 | 0.00 | 0.00 | 84 | 1007.9 |